Date String (YYYY-MM-DD hh:mm:ss) UTC,Instrument flags,Ambient pressure (hPa),Sample flow (lpm),Bypass flow (lpm),Sample temperature (°C),Ambient temperature (°C),ASC tube jacket temperature (°C),LED temperature (°C),Box temperature (°C),Sample RH (%),Span deviation,Mass concentration (μg/m³),Mass concentration (μg/m³),Mass concentration (μg/m³)
DateTimeUTC,F1_M11,P_M11,Q1_M11,Q2_M11,T1_M11,T2_M11,T3_M11,T4_M11,T5_M11,U1_M11,ZSPAN_M11,X0_M11,X2_M11,X1_M11
2022-04-17 01:00:00,,0819.2,5.01,0.00,28.4,27.6,00.0,37.2,30.2,09.4,0003.6,0031.61,0010.17,0007.80
2022-04-17 01:01:00,,0819.4,4.99,0.00,28.4,27.6,00.0,37.2,30.2,09.4,0003.8,0031.65,0010.11,0007.78
2022-04-17 01:02:00,,0819.4,4.99,0.00,28.4,27.6,00.0,37.2,30.2,09.4,0003.6,0032.01,0010.12,0007.77
2022-04-17 01:03:00,,0819.4,5.01,0.00,28.4,27.6,00.0,37.2,30.2,09.4,0003.7,0030.67,0010.06,0007.76
2022-04-17 01:04:00,,0819.3,4.99,0.00,28.4,27.6,00.0,37.3,30.3,09.4,0003.7,0031.81,0010.04,0007.74
2022-04-17 01:05:00,,0819.3,5.00,0.00,28.5,27.6,00.0,37.3,30.3,09.4,0003.8,0031.81,0010.06,0007.71
2022-04-17 01:06:00,,0819.4,5.01,0.00,28.5,27.6,00.0,37.3,30.3,09.4,0004.4,0030.07,0009.94,0007.67
2022-04-17 01:07:00,,0819.4,5.00,0.00,28.5,27.7,00.0,37.3,30.3,09.4,0003.9,0029.22,0009.97,0007.67
2022-04-17 01:08:00,,0819.4,4.99,0.00,28.5,27.7,00.0,37.3,30.3,09.4,0004.2,0028.19,0009.94,0007.67
2022-04-17 01:09:00,,0819.4,4.99,0.00,28.5,27.7,00.0,37.3,30.3,09.4,0003.5,0026.32,0009.96,0007.66
2022-04-17 01:10:00,,0819.4,5.01,0.00,28.5,27.7,00.0,37.3,30.3,09.4,0003.2,0027.29,0009.92,0007.65
2022-04-17 01:11:00,,0819.4,5.01,0.00,28.5,27.7,00.0,37.3,30.3,09.4,0002.9,0026.91,0009.90,0007.65
2022-04-17 01:12:00,,0819.4,4.99,0.00,28.5,27.7,00.0,37.3,30.3,09.4,0002.7,0025.85,0010.00,0007.66
2022-04-17 01:13:00,,0819.4,5.00,0.00,28.5,27.7,00.0,37.3,30.3,09.4,0003.4,0025.12,0010.01,0007.66
2022-04-17 01:14:00,,0819.4,5.00,0.00,28.5,27.7,00.0,37.3,30.3,09.4,0002.6,0025.16,0010.04,0007.66
2022-04-17 01:15:00,,0819.4,5.02,0.00,28.5,27.7,00.0,37.3,30.4,09.4,0002.3,0025.53,0010.02,0007.67
2022-04-17 01:16:00,,0819.5,5.00,0.00,28.5,27.7,00.0,37.3,30.4,09.4,0002.8,0026.22,0010.01,0007.69
2022-04-17 01:17:00,,0819.5,5.00,0.00,28.5,27.7,00.0,37.4,30.4,09.3,0003.0,0025.83,0010.00,0007.69
2022-04-17 01:18:00,,0819.5,4.99,0.00,28.6,27.7,00.0,37.4,30.4,09.3,0003.8,0025.97,0009.97,0007.68
2022-04-17 01:19:00,,0819.4,5.00,0.00,28.6,27.7,00.0,37.4,30.4,09.4,0003.5,0026.54,0010.02,0007.67
2022-04-17 01:20:00,,0819.4,5.02,0.00,28.6,27.7,00.0,37.4,30.4,09.4,0003.4,0027.01,0009.99,0007.67
2022-04-17 01:21:00,,0819.4,4.99,0.00,28.6,27.7,00.0,37.4,30.4,09.4,0003.4,0026.29,0010.03,0007.69
2022-04-17 01:22:00,,0819.4,5.00,0.00,28.6,27.7,00.0,37.4,30.4,09.4,0003.6,0025.77,0009.96,0007.69
2022-04-17 01:23:00,,0819.4,4.99,0.00,28.6,27.7,00.0,37.4,30.4,09.6,0003.5,0026.19,0009.89,0007.68
2022-04-17 01:24:00,,0819.4,5.00,0.00,28.5,27.7,00.0,37.4,30.3,09.6,0003.5,0026.16,0009.90,0007.71
2022-04-17 01:25:00,,0819.4,5.01,0.00,28.5,27.7,00.0,37.4,30.3,09.5,0003.8,0026.81,0009.97,0007.74
2022-04-17 01:26:00,,0819.4,5.00,0.00,28.5,27.7,00.0,37.4,30.3,09.5,0003.9,0026.48,0010.04,0007.77
2022-04-17 01:27:00,,0819.4,4.98,0.00,28.5,27.7,00.0,37.4,30.3,09.4,0003.1,0025.27,0010.09,0007.81
2022-04-17 01:28:00,,0819.4,4.99,0.00,28.5,27.7,00.0,37.4,30.3,09.4,0002.6,0026.63,0010.20,0007.84
2022-04-17 01:29:00,,0819.4,5.01,0.00,28.5,27.7,00.0,37.4,30.3,09.4,0003.0,0027.52,0010.31,0007.90
2022-04-17 01:30:00,,0819.4,5.01,0.00,28.5,27.7,00.0,37.4,30.3,09.4,0002.7,0027.42,0010.32,0007.93
2022-04-17 01:31:00,,0819.4,5.00,0.00,28.5,27.7,00.0,37.4,30.3,09.4,0003.2,0028.62,0010.30,0007.95
2022-04-17 01:32:00,,0819.4,5.00,0.00,28.5,27.7,00.0,37.4,30.3,09.4,0002.6,0027.84,0010.28,0007.97
2022-04-17 01:33:00,,0819.6,5.00,0.00,28.5,27.7,00.0,37.4,30.3,09.3,0002.0,0028.81,0010.35,0008.01
2022-04-17 01:34:00,,0819.5,5.01,0.00,28.5,27.7,00.0,37.4,30.3,09.4,0002.0,0029.47,0010.42,0008.07
2022-04-17 01:35:00,,0819.5,5.00,0.00,28.5,27.7,00.0,37.4,30.3,09.4,0000.9,0029.63,0010.51,0008.15
2022-04-17 01:36:00,,0819.6,4.99,0.00,28.5,27.7,00.0,37.4,30.3,09.4,0001.1,0029.67,0010.48,0008.21
2022-04-17 01:37:00,,0819.7,4.99,0.00,28.5,27.7,00.0,37.4,30.3,09.4,0000.8,0029.63,0010.58,0008.28
2022-04-17 01:38:00,,0819.7,5.01,0.00,28.5,27.7,00.0,37.4,30.3,09.3,0000.4,0029.97,0010.62,0008.35
2022-04-17 01:39:00,,0819.8,5.01,0.00,28.5,27.7,00.0,37.4,30.3,09.4,0000.5,0030.12,0010.70,0008.44
2022-04-17 01:40:00,,0819.8,5.00,0.00,28.5,27.6,00.0,37.4,30.3,09.5,-000.0,0029.59,0010.71,0008.51
2022-04-17 01:41:00,,0819.7,5.00,0.00,28.5,27.7,00.0,37.4,30.3,09.4,0000.4,0029.64,0010.75,0008.58
2022-04-17 01:42:00,,0819.6,5.02,0.00,28.5,27.7,00.0,37.4,30.3,09.4,0000.5,0028.80,0010.88,0008.65
2022-04-17 01:43:00,,0819.6,4.99,0.00,28.5,27.6,00.0,37.4,30.3,09.4,0001.2,0029.16,0011.03,0008.75
2022-04-17 01:44:00,,0819.5,4.99,0.00,28.5,27.7,00.0,37.4,30.3,09.4,0001.1,0028.65,0011.13,0008.84
2022-04-17 01:45:00,,0819.5,5.01,0.00,28.5,27.7,00.0,37.4,30.3,09.4,0000.4,0027.63,0011.22,0008.91
2022-04-17 01:46:00,,0819.4,5.00,0.00,28.5,27.7,00.0,37.4,30.3,09.4,0000.9,0027.38,0011.27,0008.95
2022-04-17 01:47:00,,0819.4,5.00,0.00,28.5,27.7,00.0,37.4,30.3,09.4,0000.8,0028.83,0011.34,0008.97
2022-04-17 01:48:00,,0819.4,5.00,0.00,28.5,27.7,00.0,37.4,30.3,09.5,0000.9,0028.20,0011.34,0008.99
2022-04-17 01:49:00,,0819.4,5.00,0.00,28.5,27.7,00.0,37.4,30.3,09.5,0000.1,0028.33,0011.38,0009.00
2022-04-17 01:50:00,,0819.4,5.01,0.00,28.5,27.7,00.0,37.4,30.3,09.5,0000.7,0028.01,0011.37,0009.00
2022-04-17 01:51:00,,0819.4,5.00,0.00,28.5,27.7,00.0,37.4,30.3,09.5,0001.5,0027.66,0011.38,0009.01
2022-04-17 01:52:00,,0819.4,5.00,0.00,28.5,27.7,00.0,37.4,30.3,09.6,0001.6,0027.92,0011.42,0009.04
2022-04-17 01:53:00,,0819.4,5.01,0.00,28.5,27.7,00.0,37.4,30.3,09.6,0001.5,0028.29,0011.50,0009.08
2022-04-17 01:54:00,,0819.5,4.99,0.00,28.5,27.7,00.0,37.4,30.3,09.6,0006.7,0028.78,0011.54,0009.13
2022-04-17 01:55:00,,0819.4,5.00,0.00,28.5,27.7,00.0,37.4,30.3,09.5,0004.9,0030.30,0011.60,0009.18
2022-04-17 01:56:00,,0819.4,5.02,0.00,28.5,27.7,00.0,37.4,30.3,09.5,0000.8,0031.20,0011.60,0009.22
2022-04-17 01:57:00,,0819.4,4.99,0.00,28.5,27.7,00.0,37.4,30.3,09.4,0000.6,0031.41,0011.66,0009.26
2022-04-17 01:58:00,,0819.4,4.99,0.00,28.5,27.7,00.0,37.4,30.3,09.4,0001.0,0030.81,0011.70,0009.31
2022-04-17 01:59:00,,0819.4,5.01,0.00,28.5,27.7,00.0,37.4,30.3,09.4,0001.4,0030.76,0011.76,0009.36
